CW9928 Weather Reports


Display with metric or nautical units.
time (UTC)temp
F
wind
direction
speed
MPH
gust
MPH
rain 1hr
in
rain 24hr
in
rain mn
in
humidity
%
barometer
mb
20260504192004 71 217 5.0 11.0 0.00 0.01 0.00 46 1003.7
20260504191550 70 230 4.0 18.0 0.00 0.01 0.00 47 1003.7
20260504191028 70 196 4.0 18.0 0.00 0.01 0.00 48 1003.8
20260504190515 69 263 6.0 24.0 0.00 0.01 0.00 48 1003.9
20260504185514 69 169 8.0 15.0 0.00 0.01 0.00 48 1004.1
20260504185058 69 241 5.0 15.0 0.00 0.01 0.00 48 1004.2
20260504184538 69 228 4.0 16.0 0.00 0.01 0.00 50 1004.2
20260504184020 69 270 6.0 19.0 0.00 0.01 0.00 50 1004.3
20260504183604 68 216 5.0 11.0 0.00 0.01 0.00 50 1004.3
20260504183042 68 227 4.0 13.0 0.00 0.01 0.00 52 1004.4
20260504182522 68 182 6.0 16.0 0.00 0.01 0.00 51 1004.4
20260504182002 67 201 6.0 16.0 0.00 0.01 0.00 51 1004.6
20260504181552 67 205 4.0 13.0 0.00 0.01 0.00 53 1004.7
20260504181025 67 235 4.0 18.0 0.00 0.01 0.00 53 1004.8
20260504180504 67 272 9.0 18.0 0.00 0.01 0.00 51 1004.9
20260504180048 67 231 4.0 14.0 0.00 0.01 0.00 53 1004.9
20260504175516 66 211 7.0 14.0 0.00 0.01 0.00 52 1004.9
20260504175055 66 212 4.0 14.0 0.00 0.01 0.00 53 1004.9
20260504174535 66 177 6.0 14.0 0.00 0.01 0.00 53 1004.9
20260504174015 65 217 3.0 13.0 0.00 0.01 0.00 55 1004.9
20260504173559 65 217 6.0 18.0 0.00 0.01 0.00 54 1005.2
20260504173038 65 266 4.0 18.0 0.00 0.01 0.00 54 1005.2
20260504172518 65 258 5.0 14.0 0.00 0.01 0.00 54 1005.2
20260504172102 65 206 7.0 14.0 0.00 0.01 0.00 54 1005.3
20260504171542 64 266 4.0 14.0 0.00 0.01 0.00 55 1005.3
20260504171023 64 255 4.0 14.0 0.00 0.01 0.00 55 1005.2
20260504170503 64 233 4.0 14.0 0.00 0.01 0.00 54 1005.4
20260504151015 61 250 7.0 24.0 0.00 0.01 0.00 55 1006.0
20260504150600 61 208 8.0 24.0 0.00 0.01 0.00 55 1006.1
20260504141010 59 178 9.0 22.0 0.00 0.01 0.00 56 1006.2
20260504140554 59 269 6.0 16.0 0.00 0.01 0.00 57 1006.2
20260504130550 57 239 4.0 19.0 0.00 0.01 0.00 59 1006.5
20260504110531 53 277 4.0 10.0 0.00 0.01 0.00 62 1006.9
20260504110115 53 239 3.0 9.0 0.00 0.01 0.00 62 1006.8
20260504100522 53 249 5.0 12.0 0.00 0.01 0.00 59 1006.7
20260504100108 53 254 5.0 18.0 0.00 0.01 0.00 60 1006.6
20260504090105 53 214 3.0 15.0 0.00 0.01 0.00 59 1006.8
20260504081554 52 276 3.0 9.0 0.00 0.01 0.00 63 1007.1
20260504081035 51 240 3.0 13.0 0.00 0.01 0.00 64 1007.1
20260504080514 51 239 4.0 8.0 0.00 0.01 0.00 64 1007.2
20260504050502 55 250 3.0 13.0 0.00 0.01 0.00 58 1008.6
20260504045506 56 227 5.0 13.0 0.00 0.01 0.00 56 1008.6
20260504045051 56 233 5.0 11.0 0.00 0.01 0.00 56 1008.7
20260504044532 56 245 2.0 15.0 0.00 0.01 0.00 55 1008.7
20260504044012 56 218 7.0 16.0 0.00 0.01 0.00 54 1008.8
20260504043555 56 262 5.0 16.0 0.00 0.01 0.00 54 1008.8
20260504043035 56 256 7.0 16.0 0.00 0.01 0.00 53 1008.8
20260504042514 56 234 6.0 13.0 0.00 0.01 0.00 53 1008.9
20260504042059 56 266 6.0 13.0 0.00 0.01 0.00 52 1008.9
20260504041538 56 233 5.0 12.0 0.00 0.01 0.00 52 1009.1
20260504041017 56 251 7.0 12.0 0.00 0.01 0.01 51 1009.0
20260504040600 57 263 3.0 14.0 0.00 0.01 0.01 52 1009.1
20260504040047 57 243 6.0 12.0 0.00 0.01 0.01 51 1009.0
20260504035505 57 232 5.0 16.0 0.00 0.01 0.01 51 1009.0
20260504035047 57 241 8.0 16.0 0.00 0.01 0.01 51 1009.0
20260504034526 57 246 7.0 18.0 0.00 0.01 0.01 51 1009.0
20260504034007 56 258 8.0 18.0 0.00 0.01 0.01 51 1008.9
20260504033550 56 197 5.0 14.0 0.00 0.01 0.01 51 1008.8
20260504033037 56 210 8.0 14.0 0.00 0.01 0.01 52 1009.0
20260504032516 56 238 4.0 10.0 0.00 0.01 0.01 51 1009.1
20260504032054 56 247 4.0 12.0 0.00 0.01 0.01 52 1009.1
20260504031535 56 255 4.0 12.0 0.00 0.01 0.01 52 1009.2
20260504031013 56 243 5.0 23.0 0.00 0.01 0.01 52 1009.2
20260504030556 56 237 5.0 23.0 0.00 0.01 0.01 51 1009.2
20260504030020 56 227 4.0 15.0 0.00 0.01 0.01 52 1009.2
20260504025601 56 229 7.0 15.0 0.00 0.01 0.01 52 1009.2
20260504025042 56 248 4.0 16.0 0.00 0.01 0.01 52 1009.2
20260504024522 56 250 4.0 16.0 0.00 0.01 0.01 52 1009.2
20260504024002 56 241 5.0 14.0 0.00 0.01 0.01 52 1009.4
20260504023545 56 249 6.0 16.0 0.00 0.01 0.01 52 1009.3
20260504023026 56 249 5.0 16.0 0.00 0.01 0.01 52 1009.4
20260504022509 56 237 6.0 14.0 0.00 0.01 0.01 52 1009.4
20260504022045 56 264 4.0 15.0 0.00 0.01 0.01 52 1009.4
20260504021525 56 236 8.0 19.0 0.00 0.01 0.01 52 1009.4
20260504021004 56 219 8.0 16.0 0.00 0.01 0.01 52 1009.4
20260504020548 56 254 7.0 16.0 0.00 0.01 0.01 52 1009.3
20260504020009 56 250 7.0 15.0 0.00 0.01 0.01 53 1009.5
20260504015552 56 203 5.0 12.0 0.00 0.01 0.01 53 1009.3
20260504015032 56 258 6.0 14.0 0.00 0.01 0.01 53 1009.5
20260504014512 55 217 5.0 12.0 0.00 0.01 0.01 53 1009.4
20260504014055 55 240 3.0 16.0 0.00 0.01 0.01 54 1009.4
20260504013534 55 249 5.0 16.0 0.00 0.01 0.01 54 1009.4
20260504013018 55 223 3.0 15.0 0.00 0.01 0.01 54 1009.5
20260504012555 55 233 6.0 15.0 0.00 0.01 0.01 54 1009.5
20260504012036 55 244 6.0 10.0 0.00 0.01 0.01 54 1009.5
20260504011515 55 222 5.0 10.0 0.00 0.01 0.01 54 1009.5
20260504011058 56 252 4.0 10.0 0.00 0.01 0.01 54 1009.5
20260504010538 56 223 3.0 10.0 0.00 0.01 0.01 53 1009.4
20260504010122 56 213 3.0 14.0 0.00 0.01 0.01 53 1009.4
20260504005544 56 252 5.0 15.0 0.00 0.01 0.01 54 1009.3
20260504005024 56 281 9.0 16.0 0.00 0.01 0.01 54 1009.3
20260504004505 55 259 5.0 16.0 0.00 0.01 0.01 55 1009.3
20260504004047 55 235 4.0 11.0 0.00 0.01 0.01 55 1009.2
20260504003527 55 219 4.0 14.0 0.00 0.01 0.01 55 1009.2
20260504003006 55 239 6.0 14.0 0.00 0.01 0.01 56 1009.2
20260504002550 55 258 5.0 11.0 0.00 0.01 0.01 57 1009.2
20260504002031 55 258 4.0 10.0 0.00 0.01 0.01 58 1009.2
20260504001510 55 259 1.0 8.0 0.00 0.01 0.01 59 1009.2
20260504001055 55 242 3.0 10.0 0.00 0.01 0.01 59 1009.2
20260504000534 54 210 4.0 14.0 0.00 0.01 0.01 60 1009.2
20260504000140 54 200 2.0 8.0 0.00 0.01 0.01 63 1009.3
20260503235540 54 259 0.0 9.0 0.00 0.01 0.01 66 1009.3
20260503235020 53 252 3.0 9.0 0.00 0.01 0.01 68 1009.5
20260503234604 53 261 1.0 4.0 0.00 0.01 0.01 70 1009.5
20260503234047 52 271 0.0 4.0 0.00 0.01 0.01 71 1009.6
20260503233525 52 270 0.0 4.0 0.00 0.01 0.01 73 1009.7
20260503233007 52 224 0.0 4.0 0.00 0.01 0.01 75 1009.8
20260503232548 52 223 0.0 0.0 0.00 0.01 0.01 76 1009.8
20260503232029 52 223 0.0 2.0 0.00 0.01 0.01 77 1009.9
20260503231508 51 223 0.0 2.0 0.00 0.01 0.01 79 1010.0
20260503231052 51 223 0.0 2.0 0.01 0.01 0.01 79 1010.0
20260503230535 51 223 0.0 2.0 0.01 0.01 0.01 79 1010.0
20260503230116 51 223 0.0 0.0 0.01 0.01 0.01 80 1010.2
20260503225543 51 223 0.0 0.0 0.01 0.01 0.01 80 1010.1
20260503225018 52 223 0.0 0.0 0.01 0.01 0.01 80 1010.0
20260503224601 52 223 0.0 0.0 0.01 0.01 0.01 80 1010.1
20260503224041 52 223 0.0 0.0 0.01 0.01 0.01 79 1010.0
20260503223522 52 223 0.0 0.0 0.01 0.01 0.01 78 1010.1
20260503223001 52 223 0.0 0.0 0.01 0.01 0.01 77 1010.2
20260503222545 52 223 0.0 6.0 0.01 0.01 0.01 77 1010.3
20260503222025 52 223 2.0 8.0 0.01 0.01 0.01 76 1010.4
20260503221505 52 246 2.0 7.0 0.01 0.01 0.01 76 1010.4
20260503221049 52 254 2.0 5.0 0.00 0.00 0.00 75 1010.4
20260503220530 52 250 0.0 5.0 0.00 0.00 0.00 75 1010.4
20260503220113 53 250 0.0 8.0 0.00 0.00 0.00 74 1010.4
20260503215536 53 249 2.0 9.0 0.00 0.00 0.00 72 1010.3
20260503215015 53 270 3.0 9.0 0.00 0.00 0.00 71 1010.3
20260503214601 54 236 4.0 9.0 0.00 0.00 0.00 70 1010.3
20260503214043 54 252 4.0 9.0 0.00 0.00 0.00 68 1010.2
20260503213523 55 248 2.0 14.0 0.00 0.00 0.00 65 1010.0
20260503213111 55 273 6.0 14.0 0.00 0.00 0.00 63 1009.9
20260503212546 56 242 3.0 15.0 0.00 0.00 0.00 59 1009.8
20260503212021 56 254 7.0 15.0 0.00 0.00 0.00 58 1009.6
20260503211621 56 241 6.0 13.0 0.00 0.00 0.00 58 1009.4
20260503211044 56 275 4.0 14.0 0.00 0.00 0.00 58 1009.3
20260503210523 56 251 4.0 14.0 0.00 0.00 0.00 58 1009.4
20260503210108 55 245 3.0 9.0 0.00 0.00 0.00 59 1009.5
20260503205530 55 238 3.0 10.0 0.00 0.00 0.00 59 1009.7
20260503205009 54 222 3.0 14.0 0.00 0.00 0.00 59 1009.7
20260503204554 54 248 7.0 14.0 0.00 0.00 0.00 58 1009.7
20260503204033 54 246 5.0 11.0 0.00 0.00 0.00 58 1009.7
20260503203515 54 158 4.0 10.0 0.00 0.00 0.00 58 1009.8
20260503203113 55 237 2.0 10.0 0.00 0.00 0.00 58 1009.7
20260503202540 55 244 3.0 10.0 0.00 0.00 0.00 59 1009.8
20260503202017 55 235 3.0 8.0 0.00 0.00 0.00 58 1009.8
20260503201602 55 244 3.0 9.0 0.00 0.00 0.00 59 1009.9
20260503201041 55 251 4.0 19.0 0.00 0.00 0.00 57 1010.0
20260503200521 55 246 6.0 19.0 0.00 0.00 0.00 57 1010.0
20260503200105 55 252 3.0 8.0 0.00 0.00 0.00 57 1010.0
20260503195527 56 248 4.0 11.0 0.00 0.00 0.00 57 1010.0
20260503195007 56 229 4.0 13.0 0.00 0.00 0.00 57 1010.0
20260503194554 56 243 3.0 13.0 0.00 0.00 0.00 57 1010.1
20260503194029 56 262 4.0 12.0 0.00 0.00 0.00 57 1010.1
20260503193510 55 231 5.0 10.0 0.00 0.00 0.00 55 1010.3
20260503193054 56 235 5.0 10.0 0.00 0.00 0.00 55 1010.5
20260503192533 56 256 4.0 10.0 0.00 0.00 0.00 54 1010.5